• In Russia
  • List of Countries
  • For 7 days
  • Water Temperature
  • Satellite Maps
  • Weather Map
  • Weather Widgets
  • user-avatar
    Login

    Hourly Weather Shaki

    Today, 21 November, Tuesday

    Time Temperature Precipitation Wind Pressure Humidity
    00:00 +14°C° 0 mm 2 mps 731 mmHg 44%
    01:00 +14°C° 0 mm 2 mps 731 mmHg 44%
    02:00 +13°C° 0 mm 2 mps 731 mmHg 44%
    03:00 +13°C° 0 mm 2 mps 730 mmHg 42%
    04:00 +13°C° 0 mm 2 mps 730 mmHg 42%
    05:00 +13°C° 0 mm 2 mps 730 mmHg 42%
    06:00 +13°C° 0 mm 2 mps 730 mmHg 43%
    07:00 +14°C° 0 mm 2 mps 730 mmHg 40%
    08:00 +16°C° 0 mm 2 mps 729 mmHg 38%
    09:00 +17°C° 0 mm 2 mps 729 mmHg 35%
    10:00 +18°C° 0 mm 2 mps 728 mmHg 33%
    11:00 +19°C° 0 mm 2 mps 728 mmHg 31%
    12:00 +20°C° 0 mm 3 mps 728 mmHg 29%
    13:00 +20°C° 0 mm 3 mps 727 mmHg 30%
    14:00 +19°C° 0 mm 2 mps 727 mmHg 31%
    15:00 +19°C° 0 mm 2 mps 726 mmHg 32%
    16:00 +18°C° 0 mm 2 mps 726 mmHg 35%
    17:00 +17°C° 0 mm 2 mps 726 mmHg 37%
    18:00 +15°C° 0 mm 2 mps 726 mmHg 40%
    19:00 +15°C° 0 mm 2 mps 726 mmHg 41%
    20:00 +15°C° 0 mm 2 mps 725 mmHg 41%
    21:00 +14°C° 0 mm 2 mps 725 mmHg 41%
    22:00 +14°C° 0 mm 2 mps 725 mmHg 42%
    23:00 +14°C° 0 mm 2 mps 724 mmHg 42%

    Tomorrow, 22 November, Wednesday

    Time Temperature Precipitation Wind Pressure Humidity
    00:00 +14°C° 0 mm 2 mps 724 mmHg 42%
    01:00 +13°C° 0 mm 2 mps 724 mmHg 42%
    02:00 +12°C° 0 mm 3 mps 724 mmHg 42%
    03:00 +12°C° 0 mm 4 mps 724 mmHg 42%
    04:00 +12°C° 0 mm 4 mps 725 mmHg 44%
    05:00 +12°C° 0 mm 4 mps 725 mmHg 46%
    06:00 +11°C° 0 mm 4 mps 725 mmHg 48%
    07:00 +12°C° 0 mm 5 mps 726 mmHg 47%
    08:00 +13°C° 0 mm 5 mps 726 mmHg 46%
    09:00 +14°C° 0 mm 6 mps 727 mmHg 45%
    10:00 +14°C° 0 mm 6 mps 727 mmHg 46%
    11:00 +14°C° 0 mm 5 mps 727 mmHg 47%
    12:00 +14°C° 0 mm 5 mps 728 mmHg 48%
    13:00 +13°C° 0.2 mm 5 mps 728 mmHg 49%
    14:00 +13°C° 0.2 mm 5 mps 728 mmHg 51%
    15:00 +13°C° 0.2 mm 5 mps 729 mmHg 53%
    16:00 +12°C° 0.2 mm 5 mps 729 mmHg 56%
    17:00 +10°C° 0.2 mm 5 mps 730 mmHg 60%
    18:00 +8°C° 0.2 mm 5 mps 730 mmHg 64%
    19:00 +8°C° 0.4 mm 4 mps 731 mmHg 66%
    20:00 +7°C° 0.4 mm 4 mps 731 mmHg 68%
    21:00 +8°C° 0.4 mm 3 mps 732 mmHg 70%
    22:00 +8°C° 0.7 mm 3 mps 732 mmHg 71%
    23:00 +7°C° 0.7 mm 3 mps 732 mmHg 72%

    Day after tomorrow, 23 November, Thursday

    Time Temperature Precipitation Wind Pressure Humidity
    00:00 +7°C° 0.7 mm 2 mps 732 mmHg 73%
    01:00 +7°C° 0.4 mm 2 mps 732 mmHg 73%
    02:00 +7°C° 0.4 mm 2 mps 732 mmHg 73%
    03:00 +6°C° 0.4 mm 2 mps 733 mmHg 73%
    04:00 +6°C° 0.3 mm 2 mps 733 mmHg 73%
    05:00 +6°C° 0.3 mm 2 mps 733 mmHg 73%
    06:00 +7°C° 0.3 mm 1 mps 733 mmHg 73%
    07:00 +7°C° 0.2 mm 1 mps 733 mmHg 69%
    08:00 +7°C° 0.2 mm 1 mps 734 mmHg 65%
    09:00 +7°C° 0.2 mm 1 mps 734 mmHg 62%
    10:00 +7°C° 0 mm 1 mps 734 mmHg 57%
    11:00 +8°C° 0 mm 1 mps 734 mmHg 52%
    12:00 +8°C° 0 mm 1 mps 733 mmHg 46%
    13:00 +8°C° 0 mm 1 mps 733 mmHg 44%
    14:00 +8°C° 0 mm 1 mps 733 mmHg 42%
    15:00 +8°C° 0 mm 1 mps 733 mmHg 40%
    16:00 +6°C° 0 mm 2 mps 734 mmHg 40%
    17:00 +5°C° 0 mm 2 mps 735 mmHg 40%
    18:00 +4°C° 0 mm 2 mps 735 mmHg 40%
    19:00 +4°C° 0 mm 2 mps 735 mmHg 42%
    20:00 +2°C° 0 mm 3 mps 736 mmHg 45%
    21:00 +2°C° 0 mm 3 mps 736 mmHg 47%
    22:00 +2°C° 0 mm 3 mps 736 mmHg 47%
    23:00 +1°C° 0 mm 3 mps 736 mmHg 48%

    24 November, Friday

    Time Temperature Precipitation Wind Pressure Humidity
    00:00 +1°C° 0 mm 3 mps 737 mmHg 48%
    01:00 +1°C° 0 mm 3 mps 737 mmHg 46%
    02:00 +1°C° 0 mm 3 mps 737 mmHg 44%
    03:00 0°C° 0 mm 4 mps 737 mmHg 42%
    04:00 +1°C° 0 mm 3 mps 737 mmHg 41%
    05:00 +1°C° 0 mm 3 mps 737 mmHg 40%
    06:00 +1°C° 0 mm 3 mps 738 mmHg 39%
    07:00 +2°C° 0 mm 3 mps 738 mmHg 37%
    08:00 +3°C° 0 mm 3 mps 738 mmHg 35%
    09:00 +4°C° 0 mm 3 mps 738 mmHg 32%
    10:00 +4°C° 0 mm 3 mps 738 mmHg 31%
    11:00 +5°C° 0 mm 4 mps 738 mmHg 29%
    12:00 +6°C° 0 mm 4 mps 737 mmHg 27%
    13:00 +6°C° 0 mm 4 mps 737 mmHg 28%
    14:00 +7°C° 0 mm 3 mps 738 mmHg 28%
    15:00 +7°C° 0 mm 3 mps 738 mmHg 29%
    16:00 +4°C° 0 mm 3 mps 738 mmHg 31%
    17:00 +3°C° 0 mm 3 mps 738 mmHg 33%
    18:00 +3°C° 0 mm 2 mps 739 mmHg 35%
    19:00 +3°C° 0 mm 2 mps 739 mmHg 37%
    20:00 +3°C° 0 mm 2 mps 739 mmHg 38%
    21:00 +2°C° 0 mm 2 mps 740 mmHg 40%
    22:00 +2°C° 0 mm 2 mps 740 mmHg 40%
    23:00 +2°C° 0 mm 2 mps 740 mmHg 40%

    25 November, Saturday

    Time Temperature Precipitation Wind Pressure Humidity
    00:00 +2°C° 0 mm 2 mps 740 mmHg 40%
    01:00 +2°C° 0 mm 2 mps 740 mmHg 41%
    02:00 +2°C° 0 mm 2 mps 740 mmHg 42%
    03:00 +2°C° 0 mm 2 mps 740 mmHg 43%
    04:00 +1°C° 0 mm 3 mps 741 mmHg 45%
    05:00 +1°C° 0 mm 3 mps 741 mmHg 47%
    06:00 +1°C° 0 mm 3 mps 742 mmHg 49%
    07:00 +2°C° 0.1 mm 3 mps 742 mmHg 49%
    08:00 +3°C° 0.1 mm 4 mps 743 mmHg 49%
    09:00 +4°C° 0.1 mm 4 mps 743 mmHg 49%
    10:00 +4°C° 0.2 mm 4 mps 743 mmHg 47%
    11:00 +5°C° 0.2 mm 5 mps 743 mmHg 45%
    12:00 +5°C° 0.2 mm 5 mps 743 mmHg 43%
    13:00 +6°C° 0.1 mm 4 mps 743 mmHg 43%
    14:00 +6°C° 0.1 mm 4 mps 743 mmHg 42%
    15:00 +6°C° 0.1 mm 4 mps 743 mmHg 42%
    16:00 +5°C° 0 mm 3 mps 744 mmHg 44%
    17:00 +4°C° 0 mm 3 mps 745 mmHg 47%
    18:00 +4°C° 0 mm 2 mps 745 mmHg 50%
    19:00 +3°C° 0 mm 2 mps 745 mmHg 50%
    20:00 +2°C° 0 mm 2 mps 746 mmHg 50%
    21:00 +2°C° 0 mm 2 mps 746 mmHg 50%
    22:00 +2°C° 0 mm 2 mps 746 mmHg 49%
    23:00 +1°C° 0 mm 2 mps 746 mmHg 49%

    26 November, Sunday

    Time Temperature Precipitation Wind Pressure Humidity
    00:00 +1°C° 0 mm 2 mps 746 mmHg 48%
    01:00 +1°C° 0 mm 2 mps 746 mmHg 47%
    02:00 -1°C° 0 mm 2 mps 746 mmHg 46%
    03:00 -1°C° 0 mm 2 mps 746 mmHg 45%
    04:00 -1°C° 0 mm 2 mps 746 mmHg 43%
    05:00 -1°C° 0 mm 2 mps 746 mmHg 41%
    06:00 -1°C° 0 mm 2 mps 746 mmHg 39%
    07:00 +1°C° 0 mm 2 mps 746 mmHg 37%
    08:00 +3°C° 0 mm 1 mps 746 mmHg 35%
    09:00 +5°C° 0 mm 1 mps 746 mmHg 33%
    10:00 +5°C° 0 mm 2 mps 745 mmHg 34%
    11:00 +5°C° 0 mm 2 mps 745 mmHg 34%
    12:00 +6°C° 0 mm 2 mps 744 mmHg 35%
    13:00 +6°C° 0 mm 2 mps 744 mmHg 36%
    14:00 +6°C° 0 mm 2 mps 744 mmHg 37%
    15:00 +6°C° 0 mm 2 mps 743 mmHg 37%
    16:00 +6°C° 0 mm 1 mps 744 mmHg 39%
    17:00 +4°C° 0 mm 1 mps 744 mmHg 40%
    18:00 +3°C° 0 mm 1 mps 744 mmHg 42%
    19:00 +3°C° 0 mm 1 mps 744 mmHg 41%
    20:00 +3°C° 0 mm 1 mps 744 mmHg 41%
    21:00 +2°C° 0 mm 1 mps 744 mmHg 40%
    22:00 +2°C° 0 mm 1 mps 744 mmHg 40%
    23:00 +2°C° 0 mm 1 mps 744 mmHg 40%
    Show more